COSMOS 1013

Satellite information

Favourite Embed

Satellite Type and Status

PAYLOADIN ORBIT

Key statistics

Satellite COSMOS 1013 at a glance.

Uptime

17313

Days in orbit

Revolutions

≈ 12.4

Per day

Orbit

LEO

Low Earth Orbit

Inclination

74.0

Latest

Satellite identification and parameters

Extended collection of information and parameters for COSMOS 1013.

Object identification

Identified? True

Debris? False

Object name: COSMOS 1013

International designator: 1978-056A

Object number (NORAD): 10930

Object ID (CCSDS): 10930

Country: COMMONWEALTH OF INDEPENDENT STATES (CIS)

Current information (Y/N): Y

RCS size: MEDIUM

Orbital parameters

Period: 116.334 minutes

Inclination: 74.027 deg

SMA: 7894.015 km

Apoapsis: 1553.827 km

Periapsis: 1477.932 km

RAAN: 68.2318 deg

Eccentricy: 0.00480711

Argument of periapsis: 20.0907 deg

Mean anomaly: 131.6565 deg

Mean motion: 12.37815377 rev/day

Mean motion (dot): 0.0 rev/day2

B* drag term: 0.00011867523 1/REarth

Two-line elements (TLE)

Creation date: Oct. 31, 2025, 3 a.m.

Reference frame: TEME

Reference center: EARTH

Epoch: Oct. 30, 2025, 6:16 p.m. UTC

TLE line 0: 0 COSMOS 1013

TLE line 1: 1 10930U 78056A 25303.76170213 .00000000 00000-0 11868-3 0 9996

TLE line 2: 2 10930 74.0270 68.2318 0048071 20.0907 131.6565 12.37815377141772

Live tracking on map

Real-time ground track for satellite COSMOS 1013.

In-orbit conjunctions

A list of the most updated potential collisions computed for object COSMOS 1013.

Target Orbit TCA Probability of collision Miss distance Type
DELTA 1 DEB SSO 2024-06-15 02:02:40 0.0008799334 111.0 (m) DEBRIS

Associated space launch

Military communications satellites

COSMOS 1013 was lifted into orbit during the mission ‘Kosmos-3M | Strela-1M 145-152’, on board a Kosmos-3M space rocket.

The launch took place on June 7, 1978, 10 p.m. from 132/1 (132L).

For more information about the launch, click the button.

Launch to space Kosmos-3M | Strela-1M 145-152
Kosmos-3M | Strela-1M 145-152

Agency: N/A

Status: Launch Successful

Launch date: June 7, 1978, 10 p.m. UTC

Rocket: Kosmos-3M

Launch pad: 132/1 (132L)

Location: Plesetsk Cosmodrome, Russian Federation

...

Latest news about this satellite

There are no fresh news available about this satellite. Check back as we update our databases every day.


Newsletter sign-up

Weekly statistics, charts and insights to help you stay on top of the space industry.